Flag for Iran Weather past 2 weeks in Bandar-Abbas, Iran

Now
95 °F

Haze.


Feels Like: 110 °F
Forecast: 87 / 100 °F
Wind: 12 mph from South

Location: Bandarabbass

Current Time: Jul 25, 2014 at 8:53:13 PM

Latest Report: Jul 25, 2014 at 8:30 PM


Visibility: 2 mi

Pressure: 29.42 "Hg

Humidity: 56%

Dew point: 77 °F

Location of Bandar-AbbasLocation

Historic Weather in Bandar-Abbas — Graph

°F

Bandar-Abbas temperature yesterday

Maximum temperature yesterday: 100 °F (at 4:30 PM)
Minimum temperature yesterday: 88 °F (at 4:20 AM)
Average temperature yesterday: 95 °F

Past Weeks' High & Low Weather Summary

 TemperatureHumidityPressure
High109 °F (Jul 19, 1:00 PM)89% (Jul 11, 3:20 AM)29.53 "Hg (Jul 11, 3:20 AM)
Low82 °F (Jul 19, 6:30 AM)19% (Jul 20, 11:00 AM)29.30 "Hg (Jul 16, 5:00 PM)
Average95 °F68%29.41 "Hg
* Reported Jul 10 7:30 PM — Jul 25 7:30 PM, Bandar-Abbas, Weather by CustomWeather, © 2014

Note: Actual official high and low records may vary slightly from our data, if they occured in-between our weather recording intervals... More about our weather records

Advertising

Bandar-Abbas weather history for previous 24 hours

 ConditionsComfort  
Time TempWeatherWind HumidityBarometerVisibility
7:30 PM
Jul 25
97 °FHaze.14 mph56%29.39 "Hg2 mi
7:00 PM97 °FHaze.14 mph56%29.39 "Hg2 mi
6:30 PM97 °FSandstorm.16 mph56%29.39 "Hg2 mi
6:00 PM99 °FSandstorm.18 mph53%29.39 "Hg2 mi
5:30 PM99 °FSandstorm.16 mph57%29.39 "Hg2 mi
5:00 PM100 °FSandstorm.18 mph50%29.39 "Hg2 mi
4:30 PM100 °FSandstorm.16 mph45%29.39 "Hg2 mi
4:00 PM104 °FSandstorm.18 mph40%29.39 "Hg2 mi
3:30 PM102 °FSandstorm.16 mph48%29.39 "Hg2 mi
3:00 PM100 °FSandstorm.16 mph50%29.42 "Hg2 mi
2:30 PM100 °FSandstorm.18 mph47%29.42 "Hg2 mi
2:00 PM100 °FHaze.14 mph50%29.42 "Hg2 mi
1:20 PM100 °FHaze.14 mph53%29.45 "Hg2 mi
12:30 PM102 °FHaze.14 mph51%29.45 "Hg2 mi
12:00 PM100 °FHaze.9 mph53%29.45 "Hg2 mi
11:30 AM99 °FHaze.12 mph60%29.45 "Hg2 mi
11:00 AM99 °FHaze.12 mph64%29.45 "Hg2 mi
10:30 AM100 °FHaze.7 mph53%29.45 "Hg2 mi
10:00 AM99 °FHaze.5 mph57%29.45 "Hg2 mi
9:30 AM95 °FHaze.5 mph67%29.45 "Hg2 mi
9:00 AM95 °FHaze.No wind71%29.45 "Hg2 mi
8:30 AM95 °FHaze.5 mph71%29.45 "Hg2 mi
7:30 AM90 °FHaze.7 mph75%29.42 "Hg2 mi
7:00 AM88 °FHaze.7 mph79%29.42 "Hg2 mi
6:30 AM86 °FFog.7 mph79%29.42 "Hg2 mi
5:30 AM86 °FFog.5 mph79%29.42 "Hg2 mi
4:20 AM88 °FFog.5 mph79%29.39 "Hg2 mi
3:30 AM91 °FHaze.9 mph80%29.39 "Hg2 mi
2:30 AM91 °FHaze.5 mph80%29.39 "Hg2 mi
2:00 AM91 °FHaze.7 mph80%29.42 "Hg2 mi
1:30 AM91 °FHaze.7 mph80%29.42 "Hg2 mi
1:00 AM93 °FHaze.7 mph75%29.42 "Hg2 mi
12:30 AM93 °FHaze.7 mph75%29.42 "Hg2 mi
12:00 AM95 °FHaze.7 mph71%29.39 "Hg2 mi
11:30 PM
Jul 24
97 °FHaze.5 mph47%29.42 "Hg2 mi
11:00 PM97 °FHaze.7 mph44%29.42 "Hg2 mi
10:30 PM97 °FHaze.5 mph47%29.39 "Hg2 mi
10:00 PM97 °FHaze.5 mph47%29.39 "Hg2 mi
9:20 PM97 °FHaze.7 mph47%29.36 "Hg2 mi
9:00 PM93 °FHaze.5 mph67%29.36 "Hg2 mi
8:30 PM95 °FHaze.9 mph75%29.36 "Hg2 mi
8:00 PM95 °FHaze.7 mph75%29.36 "Hg2 mi
Weather by CustomWeather, © 2014

See weather overviewHow to use our weather pages